CW1172 Weather Reports


time (UTC)temp
C
wind
direction
speed
KPH
gust
KPH
rain 1hr
cm
rain 24hr
cm
rain mn
cm
humidity
%
barometer
mb
20260506204540 5 360 0.0 0.0 0.00 0.00 0.00 71 1011.7
20260506203113 5 248 0.0 0.0 0.00 0.00 0.00 69 1011.7
20260506201539 5 198 0.0 0.0 0.00 0.00 0.00 68 1011.6
20260506200047 6 198 0.0 0.0 0.00 0.00 0.00 66 1011.5
20260506194539 6 251 0.0 0.0 0.00 0.00 0.00 63 1011.4
20260506193039 7 252 0.0 0.0 0.00 0.00 0.00 61 1011.3
20260506191544 8 360 0.0 0.0 0.00 0.00 0.00 58 1011.2
20260506190048 8 360 0.0 0.0 0.00 0.00 0.00 54 1011.0
20260506184551 9 252 0.0 0.0 0.00 0.00 0.00 52 1010.9
20260506183039 10 253 0.0 0.0 0.00 0.00 0.00 52 1011.0
20260506181538 10 263 0.0 0.0 0.00 0.00 0.00 48 1010.9
20260506180039 11 360 0.0 0.0 0.00 0.00 0.00 45 1010.8
20260506174537 11 294 0.0 0.0 0.00 0.00 0.00 44 1010.9
20260506173047 12 261 0.0 0.0 0.00 0.00 0.00 44 1010.8
20260506171539 12 360 0.0 0.0 0.00 0.00 0.00 41 1010.8
20260506170038 12 274 0.0 0.0 0.00 0.00 0.00 43 1010.7
20260506164545 13 319 0.0 0.0 0.00 0.00 0.00 43 1010.8
20260506163054 14 30 0.0 0.0 0.00 0.00 0.00 41 1010.8
20260506161538 15 360 0.0 0.0 0.00 0.00 0.00 41 1010.8
20260506160037 14 236 0.0 0.0 0.00 0.00 0.00 42 1010.6
20260506154544 14 284 0.0 0.0 0.00 0.00 0.00 40 1010.6
20260506153037 14 305 0.0 0.0 0.00 0.00 0.00 42 1010.8
20260506151541 13 271 0.0 0.0 0.00 0.00 0.00 41 1010.8
20260506150037 13 299 0.0 0.0 0.00 0.00 0.00 41 1010.7
20260506144534 13 360 0.0 0.0 0.00 0.00 0.00 42 1010.8
20260506143034 13 272 0.0 0.0 0.00 0.00 0.00 43 1010.8
20260506141533 13 246 0.0 0.0 0.00 0.00 0.00 42 1010.9
20260506140035 13 326 0.0 0.0 0.00 0.00 0.00 39 1010.9
20260506134535 13 340 0.0 0.0 0.00 0.00 0.00 38 1010.8
20260506133036 13 317 0.0 0.0 0.00 0.00 0.00 38 1010.8
20260506131537 13 326 0.0 0.0 0.00 0.00 0.00 36 1010.8
20260506130037 14 287 0.0 0.0 0.00 0.00 0.00 33 1010.9
20260506124531 15 318 0.0 0.0 0.00 0.00 0.00 33 1010.9
20260506123031 15 335 0.0 0.0 0.00 0.00 0.00 33 1011.0
20260506121529 15 246 0.0 0.0 0.00 0.00 0.00 31 1011.0
20260506120027 15 267 0.0 0.0 0.00 0.00 0.00 31 1011.0
20260506114528 15 259 0.0 0.0 0.00 0.00 0.00 31 1011.0
20260506113025 15 298 0.0 0.0 0.00 0.00 0.00 30 1011.0
20260506111529 14 280 0.0 0.0 0.00 0.00 0.00 30 1011.0
20260506110024 14 279 0.0 0.0 0.00 0.00 0.00 32 1011.0
20260506104524 14 286 0.0 0.0 0.00 0.00 0.00 30 1011.2
20260506103022 14 234 0.0 0.0 0.00 0.00 0.00 31 1011.2
20260506101522 14 313 0.0 0.0 0.00 0.00 0.00 32 1011.2
20260506100020 13 219 0.0 0.0 0.00 0.00 0.00 34 1011.5
20260506094520 13 303 0.0 0.0 0.00 0.00 0.00 35 1011.6
20260506093020 13 225 0.0 0.0 0.00 0.00 0.00 36 1011.6
20260506091519 13 268 0.0 0.0 0.00 0.00 0.00 34 1011.7
20260506090018 13 360 0.0 0.0 0.00 0.00 0.00 34 1011.8
20260506084523 13 155 0.0 0.0 0.00 0.00 0.00 32 1011.9
20260506083019 12 173 0.0 0.0 0.00 0.00 0.00 33 1011.9
20260506081517 12 176 0.0 0.0 0.00 0.00 0.00 33 1011.8
20260506073009 11 360 0.0 0.0 0.00 0.00 0.00 45 1011.7
20260506071506 11 360 0.0 0.0 0.00 0.00 0.00 51 1011.8
20260506061553 7 126 0.0 0.0 0.00 0.00 0.00 62 1011.9
20260506044544 2 143 0.0 0.0 0.00 0.00 0.00 74 1012.0
20260506043037 2 129 0.0 0.0 0.00 0.00 0.00 76 1012.0
20260506041550 1 145 0.0 0.0 0.00 0.00 0.00 79 1011.9
20260506040033 1 132 0.0 0.0 0.00 0.00 0.00 81 1011.8
20260506034543 0 128 0.0 0.0 0.00 0.00 0.00 82 1011.8
20260506033028 1 144 0.0 0.0 0.00 0.00 0.00 82 1011.8
20260506031528 1 139 0.0 0.0 0.00 0.00 0.00 83 1011.7
20260506030027 0 142 0.0 0.0 0.00 0.00 0.00 86 1011.6
20260506024529 0 131 0.0 0.0 0.00 0.00 0.00 87 1011.6
20260506023025 -1 131 0.0 0.0 0.00 0.00 0.00 86 1011.6
20260506021524 -1 145 0.0 0.0 0.00 0.00 0.00 86 1011.5
20260506020025 -1 130 0.0 0.0 0.00 0.00 0.00 86 1011.4
20260506014527 -1 131 0.0 0.0 0.00 0.00 0.00 85 1011.3
20260506013037 0 128 0.0 0.0 0.00 0.00 0.00 85 1011.4
20260506011527 0 116 0.0 0.0 0.00 0.00 0.00 85 1011.3
20260506010025 0 155 0.0 0.0 0.00 0.00 0.00 84 1011.3
20260506004521 0 134 0.0 0.0 0.00 0.00 0.00 85 1011.3
20260506003020 0 132 0.0 0.0 0.00 0.00 0.00 84 1011.1
20260506001519 0 128 0.0 0.0 0.00 0.00 0.00 83 1011.2
20260506000018 0 119 0.0 0.0 0.00 0.00 0.00 83 1011.3
20260505234519 0 121 0.0 0.0 0.00 0.00 0.00 83 1011.2
20260505233025 0 121 0.0 0.0 0.00 0.00 0.00 82 1011.2
20260505231515 0 120 0.0 0.0 0.00 0.00 0.00 82 1011.3
20260505230014 0 121 0.0 0.0 0.00 0.00 0.00 81 1011.3
20260505224514 0 132 0.0 0.0 0.00 0.00 0.00 80 1011.5
20260505223011 0 166 0.0 0.0 0.00 0.00 0.00 79 1011.7
20260505221510 0 166 0.0 0.0 0.00 0.00 0.00 78 1011.7
20260505220022 0 167 0.0 0.0 0.00 0.00 0.00 78 1011.6
20260505214507 1 167 0.0 0.0 0.00 0.00 0.00 77 1011.8
20260505213005 1 166 0.0 0.0 0.00 0.00 0.00 76 1011.7
20260505211503 1 167 0.0 0.0 0.00 0.00 0.00 74 1011.8
20260505210001 2 167 0.0 0.0 0.00 0.00 0.00 73 1011.5